SCP
0 0 0 0 0 0 0 0 0 0 0 0 0 0 0 0 0 0 0 0 0 0 0 0 0 0 0 0 0 0 0 0 0 0 0 0 0 0 0 0 1 1 1
0 0 0 0 0 0 0 0 0 0 0 0 0 0 0 0 0 0 0 0 0 0 0 0 0 0 0 0 0 0 0 0 0 0 0 0 0 0 0 1 1 1 1
0 0 0 0 0 0 0 0 0 0 0 0 0 0 0 0 0 0 0 0 0 0 0 0 0 0 0 0 0 0 0 0 0 0 0 0 0 0 0 1 1 1 1
0 0 0 0 0 0 0 0 0 0 0 0 0 0 0 0 0 0 0 0 0 0 0 0 0 0 0 0 0 0 0 0 0 0 0 0 0 0 0 0 1 1 1
0 0 0 0 0 0 0 0 0 0 0 0 0 0 0 0 0 0 0 0 0 0 0 0 0 0 0 0 0 0 0 0 0 0 0 0 0 0 0 0 1 1 1
0 0 0 0 0 0 0 0 0 0 0 0 0 0 0 0 0 0 0 0 0 0 0 0 0 0 0 0 0 0 0 0 0 0 0 0 0 0 0 0 1 1 1
0 0 0 0 0 0 0 0 0 0 0 0 0 0 0 0 0 0 0 0 0 0 0 0 0 0 0 0 0 0 0 0 0 0 0 0 0 0 0 0 0 0 0
0 0 0 0 0 0 0 0 0 0 0 0 0 0 0 0 0 0 0 0 0 0 0 0 0 0 0 0 0 0 0 0 0 0 0 0 0 0 0 0 0 0 0
0 0 0 0 0 0 0 0 0 0 0 0 0 0 0 0 0 0 0 0 0 0 0 0 0 0 0 0 0 0 0 0 0 0 0 0 0 0 0 0 0 0 0
0 0 0 0 0 0 0 0 0 0 0 0 0 0 0 0 0 0 0 0 0 0 0 0 0 0 0 0 0 0 0 0 0 0 0 0 0 0 0 0 0 0 0
0 0 0 0 0 0 0 0 0 0 0 0 0 0 0 0 0 0 0 0 0 0 0 0 0 0 0 0 0 0 0 0 0 0 0 0 0 0 0 0 0 0 0
0 0 0 0 0 0 0 0 0 0 0 0 0 0 0 0 0 0 0 0 0 0 0 0 0 0 0 0 0 0 0 0 0 0 0 0 0 0 0 0 0 0 0
0 0 0 0 0 0 0 0 0 0 0 0 0 0 0 0 0 0 0 0 0 0 0 0 0 0 0 0 0 0 0 0 0 0 0 0 0 0 0 0 0 0 0
0 0 0 0 0 0 0 0 0 0 0 0 0 0 0 0 0 0 0 0 0 0 0 0 0 0 0 0 0 0 0 0 0 0 0 0 0 0 0 0 0 0 0
0 0 0 0 0 0 0 0 0 0 0 0 0 0 0 0 0 0 0 0 0 0 0 0 0 0 0 0 0 0 0 0 0 0 0 0 0 0 0 0 0 0 0
0 0 0 0 0 0 0 0 0 0 0 0 0 0 0 0 0 0 0 0 0 0 0 0 0 0 0 0 0 0 0 0 0 0 0 0 0 0 0 0 0 0 0
0 0 0 0 0 0 0 0 0 0 0 0 0 0 0 0 0 0 0 0 0 0 0 0 0 0 0 0 0 0 0 0 0 0 0 0 0 0 0 0 0 0 0
0 0 0 0 1 1 0 0 0 0 0 0 0 0 0 0 0 0 0 0 0 0 0 0 0 0 0 0 0 0 0 0 0 0 0 0 0 0 0 0 0 0 0
0 0 0 1 1 1 1 0 0 0 0 0 0 0 0 0 0 0 0 0 0 0 0 0 0 0 0 0 0 0 0 0 0 0 0 0 0 0 0 0 0 0 0
0 0 1 1 2 1 1 0 0 0 0 0 0 0 0 0 0 0 0 0 0 0 0 0 0 0 0 0 0 0 0 0 0 0 0 0 0 0 0 0 0 0 0
0 1 1 2 2 1 0 0 0 0 0 0 0 0 0 0 0 0 0 0 0 0 0 0 0 0 0 0 0 0 0 0 0 0 0 0 0 0 0 0 0 0 0
0 1 1 1 1 1 0 0 0 0 0 0 0 0 0 0 0 0 0 0 0 0 0 0 0 0 0 0 0 0 0 0 0 0 0 0 0 0 0 0 0 0 0
1 1 1 1 1 0 0 0 0 0 0 0 0 0 0 0 0 0 0 0 0 0 0 0 0 0 0 0 0 0 0 0 0 0 0 0 0 0 0 0 0 0 0
1 1 1 1 0 0 0 0 0 0 0 0 0 0 0 0 0 0 0 0 0 0 0 0 0 0 0 0 0 0 0 0 0 0 0 0 0 0 0 0 0 0 0
1 1 0 0 0 0 0 0 0 0 0 0 0 0 0 0 0 0 0 0 0 0 0 0 0 0 0 0 0 0 0 0 0 0 0 0 0 0 0 0 0 0 0
0 0 0 0 0 0 0 0 0 0 0 0 0 0 0 0 0 0 0 0 0 0 0 0 0 0 0 0 0 0 0 0 0 0 0 0 0 0 0 0 0 0 0
Wind_Speed
5 4 4 3 2 2 2 1 2 2 2 2 1 2 1 1 1 1 1 2 2 2 2 1 1 1 0 1 1 1 1 1 1 2 1 1 1 1 0 1 2 3 5
5 4 4 4 4 3 3 3 3 2 2 2 1 1 1 1 1 1 1 1 1 2 2 1 1 1 1 1 1 1 1 1 1 2 2 1 1 1 1 2 2 3 3
6 4 4 5 4 3 2 2 2 2 2 2 1 1 0 0 1 1 1 2 1 1 1 1 1 1 1 1 0 1 1 1 0 1 2 1 1 1 1 2 2 2 4
6 5 5 4 4 3 2 1 1 1 2 2 1 1 0 0 0 1 2 2 2 2 1 0 0 1 1 2 1 2 2 2 1 1 2 1 1 2 1 1 2 2 3
7 6 5 4 3 3 2 2 1 1 2 2 2 2 1 1 2 2 3 3 3 2 1 1 1 2 2 1 1 1 2 2 2 1 2 1 1 1 1 1 2 2 3
7 7 5 4 4 3 2 2 1 1 2 2 2 2 2 2 3 3 3 3 4 3 2 1 1 2 3 2 2 3 2 2 2 2 2 2 2 2 2 1 2 1 3
7 7 6 5 4 4 3 2 2 2 2 1 2 2 1 2 3 3 4 3 4 4 3 2 2 2 2 0 2 4 4 5 5 2 2 3 3 2 1 2 2 2 3
7 7 6 6 5 4 3 2 2 2 1 1 1 1 1 2 2 3 4 3 4 3 2 1 1 3 3 2 2 2 2 1 2 2 2 2 2 2 1 2 3 3 3
7 7 7 7 6 5 4 3 2 1 0 0 0 0 0 2 2 3 3 3 3 2 1 2 2 3 5 5 3 3 3 3 2 2 2 3 4 4 3 2 2 1 2
8 7 7 7 6 5 5 4 3 3 2 1 1 1 1 2 4 4 4 2 2 2 2 3 6 5 5 6 3 3 3 4 4 3 3 4 3 3 3 2 2 2 2
8 7 6 6 6 5 4 3 3 3 3 2 2 2 3 3 4 4 4 2 2 3 2 3 3 6 5 5 3 2 3 4 4 3 3 2 2 2 2 2 1 1 2
8 7 7 6 6 6 5 3 3 3 3 3 2 2 3 4 4 3 3 3 3 2 2 3 3 5 5 4 3 3 5 5 3 3 2 2 3 3 3 3 3 3 2
9 8 7 7 5 5 5 4 3 2 2 2 2 2 2 3 3 3 2 2 3 2 2 3 2 3 3 2 2 4 4 2 2 2 3 3 2 3 3 3 3 4 4
9 8 7 7 6 5 4 3 3 2 2 1 2 2 2 3 3 2 2 2 2 2 1 0 1 2 2 2 2 2 2 2 2 2 2 2 3 3 3 3 3 4 3
9 8 7 6 7 6 4 3 3 3 3 3 2 2 3 3 3 3 2 2 2 2 3 1 1 1 2 2 2 2 2 2 2 2 2 2 3 3 3 3 3 3 3
9 9 7 6 6 6 7 5 7 6 8 9 7 5 4 6 6 4 3 3 4 4 3 1 1 2 2 2 2 2 2 2 2 2 2 2 2 3 3 3 3 3 3
9 9 7 7 7 7 7 7 5 4 6 7 7 7 7 6 5 3 2 2 4 3 1 1 2 2 2 2 2 2 2 3 3 2 2 3 3 3 3 3 3 3 3
9 10 9 7 7 7 7 7 7 7 5 3 3 6 7 6 4 3 1 1 1 0 1 1 2 2 2 2 2 2 2 2 2 3 2 3 3 3 3 4 4 4 4
8 7 7 7 7 7 7 7 6 7 6 6 5 4 6 5 4 3 2 1 1 1 2 2 2 2 2 2 2 2 2 2 2 2 3 3 3 3 3 4 4 6 5
7 11 10 8 7 6 6 6 6 6 6 6 6 6 5 4 3 2 2 1 1 2 2 2 1 2 1 1 1 2 2 2 2 2 3 3 3 3 4 5 5 5 5
6 9 13 9 7 7 6 6 6 6 6 5 5 6 8 4 3 3 3 2 2 2 2 2 1 1 1 1 1 2 2 2 2 2 3 3 4 4 4 4 5 5 5
7 7 7 7 7 6 6 6 6 6 6 6 5 5 7 4 3 3 3 2 2 2 2 2 1 1 1 0 1 1 2 2 2 3 3 4 4 5 5 5 5 6 6
8 8 7 6 6 8 8 6 6 6 6 7 7 6 5 3 3 3 3 3 3 2 2 2 1 0 0 1 1 1 2 2 2 3 4 4 5 5 6 7 8 9 8
7 9 8 7 7 7 7 7 6 7 7 7 6 6 5 4 4 4 3 3 3 2 2 1 1 0 1 1 1 1 1 2 3 3 5 5 6 7 7 7 8 10 9
6 7 8 7 8 7 7 7 7 7 6 6 6 5 5 4 4 4 3 3 3 2 1 1 1 0 1 1 1 1 2 3 3 3 4 5 7 8 8 9 9 10 10
5 6 6 6 6 7 7 7 7 7 6 6 5 5 5 4 4 4 3 3 3 2 1 1 0 1 1 1 1 1 2 3 5 7 6 6 8 8 9 9 11 11 12
Wind_Direction
183 186 172 178 192 213 205 209 239 262 270 274 292 313 4 19 37 88 310 318 320 321 326 336 330 313 353 335 339 319 279 243 257 290 307 320 275 274 217 244 235 209 210
179 179 181 181 191 215 208 207 225 235 250 262 264 283 353 21 358 359 313 324 323 328 325 327 307 326 9 301 305 301 285 256 234 279 303 315 315 299 249 247 255 237 222
173 184 191 196 197 200 206 202 232 248 255 258 256 253 257 269 322 317 302 290 282 283 306 326 326 355 334 310 294 305 301 302 278 275 280 284 289 291 295 283 275 265 255
171 185 203 206 181 178 181 191 258 282 297 296 303 296 270 279 8 340 337 329 313 295 284 262 152 45 22 4 354 350 341 337 324 297 285 288 284 283 284 279 288 274 264
171 183 197 200 169 164 165 201 243 277 286 301 322 329 343 8 34 22 347 329 319 309 308 291 150 146 127 108 25 355 355 343 322 305 297 308 295 301 275 259 273 283 272
174 179 183 182 163 165 178 196 209 251 293 323 323 323 340 26 52 33 359 327 318 314 313 312 184 169 170 187 232 255 255 274 292 298 302 301 292 283 281 273 270 288 283
175 172 168 169 164 170 191 191 198 229 242 254 292 322 25 65 53 24 352 314 296 300 314 325 351 58 92 60 261 264 264 258 246 246 271 284 294 301 314 310 295 271 260
172 168 163 165 168 171 182 185 205 238 210 178 281 322 39 60 37 4 337 297 281 284 296 327 27 57 42 24 350 329 307 289 254 241 242 273 294 316 306 281 274 277 278
170 169 164 164 166 171 180 186 191 203 208 197 219 242 115 70 40 13 347 292 282 283 11 43 47 67 41 35 20 351 345 337 323 290 274 281 292 293 288 307 301 283 284
168 167 161 159 162 168 174 177 178 177 188 203 200 191 109 93 74 46 15 323 329 349 46 70 63 67 48 41 25 4 351 334 335 338 323 311 305 306 297 260 274 283 288
157 156 156 155 157 159 163 170 171 168 181 199 192 161 124 108 103 70 44 21 358 355 22 53 55 47 43 35 28 14 351 336 331 336 333 333 341 349 351 334 316 290 279
149 154 157 155 160 156 153 163 167 171 187 196 191 170 141 125 116 102 71 45 17 16 23 47 47 31 30 26 20 9 1 355 341 345 350 355 359 354 345 339 332 326 297
150 155 156 152 150 148 154 164 175 187 187 186 168 153 130 112 108 94 88 42 28 44 50 51 31 13 6 18 31 18 11 8 1 8 2 353 343 336 341 338 333 326 313
157 159 161 160 157 149 144 151 152 162 168 166 138 132 121 100 81 48 15 15 13 25 358 303 330 358 12 17 31 26 29 40 31 11 353 339 342 352 353 346 341 336 331
166 167 170 165 154 141 119 90 106 78 90 103 87 80 93 105 101 89 72 39 11 5 343 358 38 37 38 36 33 30 25 24 18 4 5 357 352 350 342 343 341 339 336
176 176 171 159 150 143 133 106 69 99 96 90 93 103 90 107 123 104 76 39 11 1 15 40 50 46 38 30 26 14 12 10 4 6 6 357 347 340 334 334 336 335 327
182 173 165 162 159 157 154 150 143 109 91 95 104 114 126 134 130 120 83 7 340 351 40 51 64 55 38 26 23 21 11 7 8 8 3 352 345 338 333 330 328 325 318
184 175 166 163 163 166 165 164 161 159 159 152 141 146 148 156 164 174 169 29 343 55 91 72 66 55 41 29 20 12 3 358 1 354 351 347 341 334 330 327 324 324 318
180 172 165 160 161 165 164 163 161 164 159 154 150 162 175 171 180 204 200 158 130 95 85 75 71 59 40 30 19 6 357 355 355 350 346 341 336 332 328 324 321 321 318
177 171 162 159 162 163 163 162 162 163 159 158 162 164 169 174 178 178 172 154 135 121 106 94 83 72 46 27 7 351 348 352 352 349 342 338 333 328 322 319 316 313 308
168 168 165 164 167 167 166 165 163 160 157 155 151 150 156 164 165 158 156 155 147 135 121 108 93 75 56 24 356 344 346 346 349 345 340 333 327 321 315 309 306 303 302
165 165 169 170 166 165 163 161 157 154 152 144 135 144 155 159 158 153 151 146 133 123 117 113 105 95 75 18 348 345 347 351 353 349 339 330 323 318 313 309 307 307 306
167 166 172 172 165 161 161 158 156 156 153 148 150 153 162 167 159 152 147 137 125 119 112 109 109 101 48 22 24 15 358 349 348 346 333 324 320 314 309 305 303 302 299
171 170 172 171 165 164 164 161 158 155 152 151 152 154 159 159 152 148 143 135 128 127 128 126 132 125 357 355 21 38 31 10 355 342 332 315 308 302 300 298 296 296 295
173 172 172 170 167 163 162 159 157 155 152 152 152 152 152 149 146 143 140 135 132 132 130 120 123 39 355 0 16 44 33 7 346 322 311 300 295 294 294 292 291 292 290
172 169 167 163 162 161 160 158 156 153 151 149 146 143 142 141 140 139 138 133 130 131 127 113 96 2 3 26 48 43 349 331 320 311 302 295 292 290 291 289 289 287 286